CAPE
0 0 0 0 0 0 0 0 0 0 4 848 933 980 1180 1255 1208 1320 1987 1767 1361 1523 1667 1829 2023 2182 2071 2046 2013 2111 2327 2423 2458 2443 2396 2351 2288 2442 2407 2352 2328 2462 2812 2455 2446 2502 2403 2516 1682
0 0 0 0 0 0 0 0 0 0 292 633 642 678 849 1139 1472 1855 2128 2095 1778 1414 1542 1710 1912 2135 2177 1984 2005 2148 2505 2539 2478 2504 2503 2507 2386 2331 2437 2328 2360 2629 2812 2417 2373 2340 2262 2009 1360
0 0 0 0 0 0 0 0 0 0 0 78 117 363 612 824 1245 2264 2315 2505 2232 1359 1398 1704 1769 2018 2203 2156 2046 2109 2319 2334 2356 2389 2589 2648 2598 2479 2471 2333 2340 2779 2990 2610 2312 2350 2421 1394 967
0 0 0 0 0 0 0 0 0 0 0 103 74 296 512 761 2002 2795 2794 2542 2091 2147 2028 1577 1703 1888 2152 2277 2299 2319 2240 2129 2169 2298 2544 2743 2799 2693 2495 2275 2382 2840 3142 3060 2858 2759 2092 1145 734
0 0 0 0 0 0 0 0 0 0 0 0 0 24 219 852 2444 2867 2977 2602 2137 2039 1826 1484 1585 1710 1872 2066 2340 2498 2533 2454 2402 2366 2470 2614 2818 2812 2508 2212 2274 2603 3010 3340 3217 2809 2574 2033 1265
0 0 0 0 0 0 0 0 0 0 0 0 0 0 0 203 402 1098 2566 2567 2439 2224 2219 1755 1748 1585 1564 1719 1822 1912 2116 2360 2531 2566 2515 2606 2701 2672 2603 2315 2178 2269 2460 2704 2731 2594 2364 2410 2095
0 0 0 0 0 0 0 0 0 0 0 0 0 0 0 0 139 712 2320 2525 2535 2633 2710 2598 2715 2535 1947 1838 1542 1523 1651 1800 2112 2424 2542 2596 2651 2641 2604 2561 2310 2165 2185 2300 2546 2493 2453 2294 2312
0 0 0 0 0 0 0 0 0 0 0 0 0 0 0 0 1 484 906 1073 1596 2383 2968 2643 2596 2891 3057 2885 2619 1892 1612 1579 1609 1692 1891 2242 2486 2453 2364 2330 2283 2304 2124 2063 2186 2295 2417 2371 2140
0 0 0 0 0 0 0 0 0 0 0 0 0 0 0 0 0 19 515 973 1017 1172 1367 1686 1812 1896 2008 2200 2987 2653 2233 1964 1694 1602 1562 1527 1553 1758 1934 1903 1888 1808 1901 1875 1870 1909 2004 2129 2180
0 0 0 0 0 0 0 0 0 0 0 0 0 0 0 0 0 0 0 0 189 496 1089 1300 1292 1625 1846 2092 2188 2296 2176 1782 1723 1550 2102 2047 1981 2125 2144 1916 1792 1707 1656 1542 1516 1664 1628 1360 1443
0 0 0 0 0 0 0 0 0 0 0 0 0 0 0 0 0 0 0 0 0 0 0 28 47 545 1156 1658 2028 1799 1617 1620 1197 518 1844 1958 1859 1789 2299 2175 1790 1581 1199 1096 1058 968 971 1004 1002
0 0 0 0 0 0 0 0 0 0 0 0 0 0 0 0 0 0 0 0 0 0 0 0 0 0 0 1 1331 1720 1219 911 1273 1394 1107 1167 1344 1348 1354 1270 1264 1095 1079 770 747 699 544 509 932
0 0 0 0 0 0 0 0 0 0 0 0 0 0 0 0 0 0 0 0 0 0 0 0 0 0 0 0 0 68 882 956 1100 1026 1013 1108 1084 923 773 591 9 473 456 550 592 513 365 414 310
0 0 0 0 0 0 0 0 0 0 0 0 0 0 0 0 0 0 0 0 0 0 0 0 0 0 0 0 0 0 0 0 182 584 768 711 612 417 23 0 0 0 0 2 50 64 126 167 270
0 0 0 0 0 0 0 0 0 0 0 0 0 0 0 0 0 0 0 0 0 0 0 0 0 0 0 0 0 0 0 0 0 0 0 3 1 0 0 0 1 2 0 1 1 1 2 4 105
0 0 0 0 0 0 0 0 0 0 0 0 0 0 0 0 0 0 0 0 0 0 0 0 0 0 0 0 0 0 0 0 0 0 0 0 0 0 0 0 0 0 0 0 0 0 24 1 0
0 0 0 0 0 0 0 0 0 0 0 0 0 0 0 0 0 0 0 0 0 0 0 0 0 0 0 0 0 0 0 0 0 0 0 0 0 0 0 0 0 0 0 0 0 0 0 13 14
0 0 0 0 0 0 0 0 0 0 0 0 0 0 0 0 0 0 0 0 0 0 0 0 0 0 0 0 0 0 0 0 0 0 0 0 0 0 0 0 0 0 0 0 0 0 0 0 1
0 0 0 0 0 0 0 0 0 0 0 0 0 0 0 0 0 0 0 0 0 0 0 0 0 0 0 0 0 0 0 0 0 0 0 0 0 0 0 0 0 0 0 0 0 0 0 0 0
0 0 0 0 0 0 0 0 0 0 0 0 0 0 0 0 0 0 0 0 0 0 0 0 0 0 0 0 0 0 0 0 0 0 0 0 0 0 0 0 0 0 0 0 0 0 0 0 0
0 0 0 0 0 0 0 0 0 0 0 0 0 0 0 0 0 0 0 0 0 0 0 0 0 0 0 0 0 0 0 0 0 0 0 0 0 0 0 0 0 0 0 0 0 0 0 0 0
0 0 0 0 0 0 0 0 0 0 0 0 0 0 0 0 0 0 0 0 0 0 0 0 0 0 0 0 0 0 0 0 0 0 0 0 0 0 0 0 0 0 0 0 0 0 0 0 0
0 0 0 0 0 0 0 0 0 0 0 0 0 0 0 0 0 0 0 0 0 0 0 0 0 0 0 0 0 0 0 0 0 0 0 0 0 0 0 0 0 0 0 0 0 0 0 0 0
0 0 0 0 0 0 0 0 0 0 0 0 0 0 0 0 0 0 0 0 0 0 0 0 0 0 0 0 0 0 0 0 0 0 0 0 0 0 0 0 0 0 0 0 0 0 0 0 0
0 0 0 0 0 0 0 0 0 0 0 0 0 0 0 0 0 0 2 0 0 0 0 0 0 0 0 0 0 0 0 0 0 0 0 0 0 0 0 0 0 0 0 0 0 0 0 0 0
0 0 0 0 0 0 0 0 0 0 0 0 0 0 0 0 0 0 0 0 0 0 0 0 0 0 0 0 0 0 0 0 0 0 0 0 0 0 0 0 0 0 0 0 0 0 0 0 0
0 0 0 0 0 0 0 0 0 0 0 0 0 0 5 1 0 0 0 0 0 2 0 0 0 0 0 0 0 0 0 0 0 0 0 0 0 0 0 0 0 0 0 0 0 0 0 0 0
0 0 0 0 0 0 0 0 0 0 2 7 8 16 32 15 11 7 0 2 0 2 5 0 0 0 0 0 0 0 0 0 0 0 0 0 0 0 0 0 0 0 0 0 0 0 0 0 0
0 0 0 0 0 0 0 0 0 0 0 0 26 84 36 25 18 10 0 0 0 0 0 5 0 0 0 0 0 0 0 0 0 0 0 0 0 0 0 0 0 0 0 0 0 0 0 0 0
0 0 0 0 0 0 0 0 0 0 0 4 47 86 68 37 16 2 0 0 3 7 8 32 0 0 0 0 0 0 0 0 0 0 0 0 0 0 0 0 0 0 0 0 0 0 0 0 0
CIN
0 0 0 0 0 0 0 0 0 0 -87 -155 -177 -199 -176 -141 -112 -64 -54 -59 -128 -316 -323 -288 -245 -228 -270 -292 -296 -265 -214 -182 -154 -135 -124 -107 -101 -70 -58 -52 -43 -21 -1 -12 -9 -1 -3 -3 -37
0 0 0 0 0 0 0 0 0 0 -105 -149 -168 -161 -186 -164 -73 -69 -33 -23 -37 -342 -336 -309 -266 -237 -250 -290 -281 -239 -168 -151 -145 -130 -120 -106 -105 -97 -71 -67 -48 -18 -3 -15 -10 -5 -4 -19 -66
0 0 0 0 0 0 0 0 0 0 0 -130 -156 -110 -112 -137 -75 -43 -30 -27 -19 -246 -304 -301 -282 -229 -209 -219 -231 -215 -171 -157 -146 -129 -102 -91 -88 -89 -77 -76 -65 -20 0 -3 -7 -2 -2 -50 -82
0 0 0 0 0 0 0 0 0 0 -5 -180 -144 -85 -62 -88 -25 -61 -39 -28 -58 -52 -76 -110 -257 -223 -186 -171 -167 -158 -154 -150 -138 -120 -92 -77 -65 -65 -76 -85 -71 -26 -0 0 0 -0 -8 -72 -100
0 0 0 0 0 0 0 0 0 0 0 0 -10 -157 -137 -42 -28 -46 -71 -107 -164 -142 -154 -307 -271 -251 -219 -181 -139 -105 -92 -90 -93 -98 -93 -77 -57 -47 -59 -77 -62 -28 -2 -0 -1 -5 -5 -8 -40
0 0 0 0 0 0 0 0 0 0 0 0 0 0 0 -100 -68 -50 -46 -51 -67 -93 -88 -196 -191 -223 -242 -226 -197 -153 -131 -109 -87 -77 -74 -62 -41 -34 -38 -57 -61 -52 -28 -10 -6 -6 -8 -10 -4
0 0 0 0 0 0 0 0 0 0 0 0 0 0 0 0 -138 -150 -67 -67 -90 -58 -29 -35 -30 -39 -90 -113 -213 -228 -203 -168 -127 -89 -60 -41 -37 -32 -31 -31 -46 -54 -49 -32 -13 -11 -7 -10 -5
0 0 0 0 0 0 0 0 0 0 0 0 0 0 0 0 -31 -145 -151 -152 -142 -60 -12 -35 -32 -12 -14 -26 -37 -66 -174 -173 -151 -121 -82 -49 -38 -37 -44 -40 -44 -42 -47 -38 -24 -15 -9 -6 -8
0 0 0 0 0 0 0 0 0 0 0 0 0 0 0 0 0 -122 -138 -110 -135 -150 -124 -97 -86 -85 -83 -66 -5 -20 -27 -33 -66 -91 -92 -99 -90 -74 -41 -37 -34 -34 -38 -47 -48 -42 -36 -25 -13
0 0 0 0 0 0 0 0 0 0 0 0 0 0 0 0 0 0 0 0 -156 -126 -81 -65 -71 -48 -41 -34 -31 -18 -13 -28 -17 -35 -6 -6 -11 -3 -15 -15 -16 -14 -8 -21 -42 -40 -54 -37 -48
0 0 0 0 0 0 0 0 0 0 0 0 0 0 0 0 0 0 0 0 0 0 -26 -21 -21 -111 -29 -15 -2 -17 -14 -19 -20 -125 -0 0 0 0 0 -1 -1 -4 -12 -10 -26 -35 -39 -34 -27
0 0 0 0 0 0 0 0 0 0 0 0 0 0 0 0 0 0 0 0 0 0 0 0 0 0 0 -15 -9 -0 -31 -14 -15 -5 -21 -11 -0 0 -2 -10 -8 -13 -14 -16 -21 -30 -47 -45 -49
0 0 0 0 0 0 0 0 0 0 0 0 0 0 0 0 0 0 0 0 0 0 0 0 0 0 0 0 0 -51 -11 0 0 -2 -1 0 -1 -4 -7 -8 -144 -38 -33 -18 -4 -32 -48 -43 -61
0 0 0 0 0 0 0 0 0 0 0 0 0 0 0 0 0 0 0 0 0 0 0 0 0 0 0 0 0 0 0 0 -108 -2 -7 -8 -8 -16 -23 0 0 0 0 -14 -100 -95 -74 -78 -30
0 0 0 0 0 0 0 0 0 0 0 0 0 0 0 0 0 0 0 0 0 0 0 0 0 0 0 0 0 0 0 0 0 0 0 -5 -7 -8 0 0 -0 -0 0 0 -0 -0 -148 -6 -47
0 0 0 0 0 0 0 0 0 0 0 0 0 0 0 0 0 0 0 0 0 0 0 0 0 0 0 0 0 0 0 0 0 0 0 0 0 0 0 0 0 0 0 0 0 0 -110 -7 0
0 0 0 0 0 0 0 0 0 0 0 0 0 0 0 0 0 0 0 0 0 0 0 0 0 0 0 0 0 0 0 0 0 0 0 0 0 0 0 0 0 0 0 0 0 0 0 -53 -45
0 0 0 0 0 0 0 0 0 0 0 0 0 0 0 0 0 0 0 0 0 0 0 0 0 0 0 0 0 0 0 0 0 0 0 0 0 0 0 0 0 0 0 0 0 0 0 0 -9
0 0 0 0 0 0 0 0 0 0 0 0 0 0 0 0 0 0 0 0 0 0 0 0 0 0 0 0 0 0 0 0 0 0 0 0 0 0 0 0 0 0 0 0 0 0 0 0 0
0 0 0 0 0 0 0 0 0 0 0 0 0 0 0 0 0 0 0 0 0 0 0 0 0 0 0 0 0 0 0 0 0 0 0 0 0 0 0 0 0 0 0 0 0 0 0 0 0
0 0 0 0 0 0 0 0 0 0 0 0 0 0 0 0 0 0 0 0 0 0 0 0 0 0 0 0 0 0 0 0 0 0 0 0 0 0 0 0 0 0 0 0 0 0 0 0 0
0 0 0 0 0 0 0 0 0 0 0 0 0 0 0 0 0 0 0 0 0 0 0 0 0 0 0 0 0 0 0 0 0 0 0 0 0 0 0 0 0 0 0 0 0 0 0 0 0
0 0 0 0 0 0 0 0 0 0 0 0 0 0 0 0 0 0 0 0 0 0 0 0 0 0 0 0 0 0 0 0 0 0 0 0 0 0 0 0 0 0 0 0 0 0 0 0 0
0 0 0 0 0 0 0 0 0 0 0 0 0 0 0 0 0 0 0 0 0 0 0 0 0 0 0 0 0 0 0 0 0 0 0 0 0 0 0 0 0 0 0 0 0 0 0 0 0
0 0 0 0 0 0 0 0 0 0 0 0 0 0 0 0 0 0 -25 -35 0 0 0 0 0 0 0 0 0 0 0 0 0 0 0 0 0 0 0 0 0 0 0 0 0 0 0 0 0
0 0 0 0 0 0 0 0 0 0 0 0 0 0 0 0 0 0 0 0 0 0 0 0 0 0 0 0 0 0 0 0 0 0 0 0 0 0 0 0 0 0 0 0 0 0 0 0 0
0 0 0 0 0 0 0 0 0 0 0 0 0 0 -35 -11 -7 0 0 -7 0 -63 0 0 0 0 0 0 0 0 0 0 0 0 0 0 0 0 0 0 0 0 0 0 0 0 0 0 0
0 0 0 0 0 0 0 0 0 0 -2 -68 -20 -12 -7 -23 -28 -10 0 -1 -1 -15 -38 0 0 0 0 0 0 0 0 0 0 0 0 0 0 0 0 0 0 0 0 0 0 0 0 0 0
0 0 0 0 0 0 0 0 0 0 0 0 -99 -49 -34 -28 -41 -52 0 0 0 -1 0 -6 0 0 0 0 0 0 0 0 0 0 0 0 0 0 0 0 0 0 0 0 0 0 0 0 0
0 0 0 0 0 0 0 0 0 0 0 -46 -100 -120 -94 -66 -61 -88 0 0 -74 -73 -43 -0 0 0 0 0 0 0 0 0 0 0 0 0 0 0 0 0 0 0 0 0 0 0 0 0 0
Wind_Speed
nan nan nan nan nan nan nan nan nan nan nan 17 25 35 33 27 27 33 27 32 38 29 28 22 22 22 24 27 29 29 28 27 26 26 26 25 27 27 26 25 23 22 23 23 23 23 23 23 22
nan nan nan nan nan nan nan nan nan nan 21 25 33 39 34 28 28 33 32 34 27 27 24 23 25 25 26 28 30 30 27 27 25 25 25 25 24 25 25 25 23 20 20 22 21 21 22 21 21
nan nan nan nan nan nan nan nan nan nan nan nan 32 34 33 26 23 25 39 38 36 33 31 30 29 26 28 28 31 32 29 27 27 25 24 23 23 23 22 23 23 22 18 18 19 19 21 20 19
nan nan nan nan nan nan nan nan nan nan nan 36 nan 32 28 21 16 21 32 35 36 35 35 34 31 30 31 31 31 31 28 27 28 27 24 23 22 20 20 19 20 21 21 19 18 19 19 18 18
nan nan nan nan nan nan nan nan nan nan nan nan nan nan 32 22 28 24 27 32 35 31 33 34 34 33 32 32 32 32 32 28 26 25 25 23 22 21 19 17 17 18 19 20 19 19 19 19 18
nan nan nan nan nan nan nan nan nan nan nan nan nan nan nan 19 28 23 29 33 33 33 32 34 32 31 33 35 35 35 33 30 28 26 25 24 23 22 20 18 16 16 17 19 19 20 20 21 19
nan nan nan nan nan nan nan nan nan nan nan nan nan nan nan nan 25 28 27 32 35 35 36 35 36 34 34 31 34 35 32 32 31 28 26 26 25 24 21 19 18 17 19 19 19 22 22 22 21
nan nan nan nan nan nan nan nan nan nan nan nan nan nan nan nan nan 33 31 30 32 36 37 38 37 37 38 34 29 27 27 29 29 28 27 25 26 26 23 21 21 20 19 20 22 23 24 23 24
nan nan nan nan nan nan nan nan nan nan nan nan nan nan nan nan nan nan 27 32 30 35 38 37 37 36 34 35 34 32 27 27 24 23 21 23 24 24 24 22 19 19 21 21 24 25 27 25 26
nan nan nan nan nan nan nan nan nan nan nan nan nan nan nan nan nan nan nan nan 29 31 34 34 33 33 34 34 33 34 36 35 33 31 32 24 31 28 30 30 28 23 17 16 20 26 28 28 33
nan nan nan nan nan nan nan nan nan nan nan nan nan nan nan nan nan nan nan nan nan nan nan nan nan 30 32 34 35 37 39 39 38 39 38 38 40 33 38 34 34 36 33 30 31 33 34 31 32
nan nan nan nan nan nan nan nan nan nan nan nan nan nan nan nan nan nan nan nan nan nan nan nan nan nan nan nan 42 43 46 49 49 48 48 46 46 45 45 47 43 44 42 40 39 41 40 37 38
nan nan nan nan nan nan nan nan nan nan nan nan nan nan nan nan nan nan nan nan nan nan nan nan nan nan nan nan nan nan 55 57 57 57 57 55 55 54 53 54 nan 51 50 50 45 47 49 48 53
nan nan nan nan nan nan nan nan nan nan nan nan nan nan nan nan nan nan nan nan nan nan nan nan nan nan nan nan nan nan nan nan 57 59 57 56 48 49 nan nan nan nan nan nan nan nan 51 53 54
nan nan nan nan nan nan nan nan nan nan nan nan nan nan nan nan nan nan nan nan nan nan nan nan nan nan nan nan nan nan nan nan nan nan nan nan nan nan nan nan nan nan nan nan nan nan nan nan 53
nan nan nan nan nan nan nan nan nan nan nan nan nan nan nan nan nan nan nan nan nan nan nan nan nan nan nan nan nan nan nan nan nan nan nan nan nan nan nan nan nan nan nan nan nan nan nan nan nan
nan nan nan nan nan nan nan nan nan nan nan nan nan nan nan nan nan nan nan nan nan nan nan nan nan nan nan nan nan nan nan nan nan nan nan nan nan nan nan nan nan nan nan nan nan nan nan nan nan
nan nan nan nan nan nan nan nan nan nan nan nan nan nan nan nan nan nan nan nan nan nan nan nan nan nan nan nan nan nan nan nan nan nan nan nan nan nan nan nan nan nan nan nan nan nan nan nan nan
nan nan nan nan nan nan nan nan nan nan nan nan nan nan nan nan nan nan nan nan nan nan nan nan nan nan nan nan nan nan nan nan nan nan nan nan nan nan nan nan nan nan nan nan nan nan nan nan nan
nan nan nan nan nan nan nan nan nan nan nan nan nan nan nan nan nan nan nan nan nan nan nan nan nan nan nan nan nan nan nan nan nan nan nan nan nan nan nan nan nan nan nan nan nan nan nan nan nan
nan nan nan nan nan nan nan nan nan nan nan nan nan nan nan nan nan nan nan nan nan nan nan nan nan nan nan nan nan nan nan nan nan nan nan nan nan nan nan nan nan nan nan nan nan nan nan nan nan
nan nan nan nan nan nan nan nan nan nan nan nan nan nan nan nan nan nan nan nan nan nan nan nan nan nan nan nan nan nan nan nan nan nan nan nan nan nan nan nan nan nan nan nan nan nan nan nan nan
nan nan nan nan nan nan nan nan nan nan nan nan nan nan nan nan nan nan nan nan nan nan nan nan nan nan nan nan nan nan nan nan nan nan nan nan nan nan nan nan nan nan nan nan nan nan nan nan nan
nan nan nan nan nan nan nan nan nan nan nan nan nan nan nan nan nan nan nan nan nan nan nan nan nan nan nan nan nan nan nan nan nan nan nan nan nan nan nan nan nan nan nan nan nan nan nan nan nan
nan nan nan nan nan nan nan nan nan nan nan nan nan nan nan nan nan nan nan nan nan nan nan nan nan nan nan nan nan nan nan nan nan nan nan nan nan nan nan nan nan nan nan nan nan nan nan nan nan
nan nan nan nan nan nan nan nan nan nan nan nan nan nan nan nan nan nan nan nan nan nan nan nan nan nan nan nan nan nan nan nan nan nan nan nan nan nan nan nan nan nan nan nan nan nan nan nan nan
nan nan nan nan nan nan nan nan nan nan nan nan nan nan nan nan nan nan nan nan nan nan nan nan nan nan nan nan nan nan nan nan nan nan nan nan nan nan nan nan nan nan nan nan nan nan nan nan nan
nan nan nan nan nan nan nan nan nan nan nan nan nan nan nan nan nan nan nan nan nan nan nan nan nan nan nan nan nan nan nan nan nan nan nan nan nan nan nan nan nan nan nan nan nan nan nan nan nan
nan nan nan nan nan nan nan nan nan nan nan nan nan nan nan nan nan nan nan nan nan nan nan nan nan nan nan nan nan nan nan nan nan nan nan nan nan nan nan nan nan nan nan nan nan nan nan nan nan
nan nan nan nan nan nan nan nan nan nan nan nan nan nan nan nan nan nan nan nan nan nan nan nan nan nan nan nan nan nan nan nan nan nan nan nan nan nan nan nan nan nan nan nan nan nan nan nan nan
Wind_Direction
nan nan nan nan nan nan nan nan nan nan nan 267 277 275 282 286 288 281 266 268 286 292 289 290 290 301 307 307 306 307 307 305 298 297 294 294 296 299 301 302 302 301 299 297 294 295 296 296 295
nan nan nan nan nan nan nan nan nan nan 276 285 277 281 276 280 278 270 264 267 273 284 284 284 296 299 301 299 301 302 297 302 300 298 298 299 298 299 302 304 304 303 300 302 301 299 296 295 295
nan nan nan nan nan nan nan nan nan nan nan nan 288 285 300 312 276 265 266 270 263 266 273 281 287 286 286 286 289 296 299 296 296 293 293 289 291 295 301 305 307 305 301 300 300 299 296 294 291
nan nan nan nan nan nan nan nan nan nan nan 282 nan 291 305 308 288 279 268 266 262 259 261 269 271 275 278 282 286 291 294 291 291 288 286 287 286 286 292 298 303 304 306 305 301 295 295 294 291
nan nan nan nan nan nan nan nan nan nan nan nan nan nan 299 296 297 284 267 259 265 263 261 267 275 276 277 278 280 282 283 283 283 285 288 291 289 288 285 287 289 293 299 299 299 303 301 299 298
nan nan nan nan nan nan nan nan nan nan nan nan nan nan nan 310 298 276 257 253 248 255 256 258 263 273 286 288 283 278 281 285 283 285 288 288 287 285 284 286 288 290 289 291 296 292 301 302 302
nan nan nan nan nan nan nan nan nan nan nan nan nan nan nan nan 282 277 269 262 261 257 255 256 258 261 265 266 284 294 292 290 291 290 286 286 284 284 286 283 284 283 286 288 292 294 298 300 301
nan nan nan nan nan nan nan nan nan nan nan nan nan nan nan nan nan 285 267 256 251 250 253 252 252 256 264 269 284 278 285 283 280 281 283 286 285 281 280 280 283 289 284 284 287 289 288 291 295
nan nan nan nan nan nan nan nan nan nan nan nan nan nan nan nan nan nan 272 262 259 256 254 256 260 263 266 267 270 276 271 269 272 273 280 283 273 273 275 272 272 280 289 294 294 294 295 291 290
nan nan nan nan nan nan nan nan nan nan nan nan nan nan nan nan nan nan nan nan 263 255 254 259 260 262 269 270 269 269 271 274 270 269 269 283 273 272 272 267 256 255 270 282 289 293 295 286 276
nan nan nan nan nan nan nan nan nan nan nan nan nan nan nan nan nan nan nan nan nan nan nan nan nan 259 261 265 268 273 277 277 275 268 271 275 281 282 272 271 274 273 266 273 268 273 279 283 284
nan nan nan nan nan nan nan nan nan nan nan nan nan nan nan nan nan nan nan nan nan nan nan nan nan nan nan nan 269 272 275 278 279 277 273 274 276 275 274 273 271 272 274 271 275 281 286 285 290
nan nan nan nan nan nan nan nan nan nan nan nan nan nan nan nan nan nan nan nan nan nan nan nan nan nan nan nan nan nan 279 280 279 279 279 275 271 271 273 273 nan 267 267 268 270 276 276 279 281
nan nan nan nan nan nan nan nan nan nan nan nan nan nan nan nan nan nan nan nan nan nan nan nan nan nan nan nan nan nan nan nan 283 282 280 276 272 268 nan nan nan nan nan nan nan nan 272 277 281
nan nan nan nan nan nan nan nan nan nan nan nan nan nan nan nan nan nan nan nan nan nan nan nan nan nan nan nan nan nan nan nan nan nan nan nan nan nan nan nan nan nan nan nan nan nan nan nan 273
nan nan nan nan nan nan nan nan nan nan nan nan nan nan nan nan nan nan nan nan nan nan nan nan nan nan nan nan nan nan nan nan nan nan nan nan nan nan nan nan nan nan nan nan nan nan nan nan nan
nan nan nan nan nan nan nan nan nan nan nan nan nan nan nan nan nan nan nan nan nan nan nan nan nan nan nan nan nan nan nan nan nan nan nan nan nan nan nan nan nan nan nan nan nan nan nan nan nan
nan nan nan nan nan nan nan nan nan nan nan nan nan nan nan nan nan nan nan nan nan nan nan nan nan nan nan nan nan nan nan nan nan nan nan nan nan nan nan nan nan nan nan nan nan nan nan nan nan
nan nan nan nan nan nan nan nan nan nan nan nan nan nan nan nan nan nan nan nan nan nan nan nan nan nan nan nan nan nan nan nan nan nan nan nan nan nan nan nan nan nan nan nan nan nan nan nan nan
nan nan nan nan nan nan nan nan nan nan nan nan nan nan nan nan nan nan nan nan nan nan nan nan nan nan nan nan nan nan nan nan nan nan nan nan nan nan nan nan nan nan nan nan nan nan nan nan nan
nan nan nan nan nan nan nan nan nan nan nan nan nan nan nan nan nan nan nan nan nan nan nan nan nan nan nan nan nan nan nan nan nan nan nan nan nan nan nan nan nan nan nan nan nan nan nan nan nan
nan nan nan nan nan nan nan nan nan nan nan nan nan nan nan nan nan nan nan nan nan nan nan nan nan nan nan nan nan nan nan nan nan nan nan nan nan nan nan nan nan nan nan nan nan nan nan nan nan
nan nan nan nan nan nan nan nan nan nan nan nan nan nan nan nan nan nan nan nan nan nan nan nan nan nan nan nan nan nan nan nan nan nan nan nan nan nan nan nan nan nan nan nan nan nan nan nan nan
nan nan nan nan nan nan nan nan nan nan nan nan nan nan nan nan nan nan nan nan nan nan nan nan nan nan nan nan nan nan nan nan nan nan nan nan nan nan nan nan nan nan nan nan nan nan nan nan nan
nan nan nan nan nan nan nan nan nan nan nan nan nan nan nan nan nan nan nan nan nan nan nan nan nan nan nan nan nan nan nan nan nan nan nan nan nan nan nan nan nan nan nan nan nan nan nan nan nan
nan nan nan nan nan nan nan nan nan nan nan nan nan nan nan nan nan nan nan nan nan nan nan nan nan nan nan nan nan nan nan nan nan nan nan nan nan nan nan nan nan nan nan nan nan nan nan nan nan
nan nan nan nan nan nan nan nan nan nan nan nan nan nan nan nan nan nan nan nan nan nan nan nan nan nan nan nan nan nan nan nan nan nan nan nan nan nan nan nan nan nan nan nan nan nan nan nan nan
nan nan nan nan nan nan nan nan nan nan nan nan nan nan nan nan nan nan nan nan nan nan nan nan nan nan nan nan nan nan nan nan nan nan nan nan nan nan nan nan nan nan nan nan nan nan nan nan nan
nan nan nan nan nan nan nan nan nan nan nan nan nan nan nan nan nan nan nan nan nan nan nan nan nan nan nan nan nan nan nan nan nan nan nan nan nan nan nan nan nan nan nan nan nan nan nan nan nan
nan nan nan nan nan nan nan nan nan nan nan nan nan nan nan nan nan nan nan nan nan nan nan nan nan nan nan nan nan nan nan nan nan nan nan nan nan nan nan nan nan nan nan nan nan nan nan nan nan